TimeEST,TemperatureF,Dew PointF,Humidity,Sea Level PressureIn,VisibilityMPH,Wind Direction,Wind SpeedMPH,Gust SpeedMPH,PrecipitationIn,Events,Conditions,WindDirDegrees,DateUTC
7:00 AM,76,75,96,29.92,12,SSE,4.6,,,,Scattered Clouds,160,2014-03-06 12:00:00
7:00 AM,75.2,75.2,100,29.92,6.2,SSE,4.6,-,N/A,,Scattered Clouds,160,2014-03-06 12:00:00
8:00 AM,78.8,77.0,94,29.93,6.2,South,8.1,-,N/A,,Mostly Cloudy,170,2014-03-06 13:00:00
9:00 AM,78.8,77.0,94,29.92,6.2,SSE,10.4,-,N/A,,Mostly Cloudy,160,2014-03-06 14:00:00
10:00 AM,79,76,89,29.94,9,South,11.5,,,,Mostly Cloudy,180,2014-03-06 15:00:00
10:00 AM,78.8,77.0,94,29.93,6.2,South,11.5,-,N/A,,Mostly Cloudy,180,2014-03-06 15:00:00
11:00 AM,80.6,77.0,89,29.92,6.2,South,16.1,-,N/A,,Mostly Cloudy,190,2014-03-06 16:00:00
12:00 PM,80.6,78.8,94,29.90,6.2,SSW,15.0,-,N/A,,Mostly Cloudy,200,2014-03-06 17:00:00
1:00 PM,81,78,89,29.87,12,South,16.1,,,,Partly Cloudy,180,2014-03-06 18:00:00
1:00 PM,80.6,78.8,94,29.87,6.2,South,16.1,-,N/A,,Mostly Cloudy,180,2014-03-06 18:00:00
2:00 PM,80.6,78.8,94,29.85,6.2,South,15.0,-,N/A,,Mostly Cloudy,180,2014-03-06 19:00:00
2:38 PM,78.8,77.0,94,29.83,6.2,South,19.6,-,N/A,Thunderstorm,Thunderstorm,190,2014-03-06 19:38:00
3:00 PM,73.4,73.4,100,29.83,6.2,SSW,11.5,-,N/A,Rain-Thunderstorm,Light Thunderstorms and Rain,210,2014-03-06 20:00:00
4:00 PM,73,73,100,29.84,4,South,19.6,,,Rain-Thunderstorm,Thunderstorms and Rain,190,2014-03-06 21:00:00
4:00 PM,73.4,73.4,100,29.84,3.7,South,19.6,-,N/A,Rain-Thunderstorm,Thunderstorms and Rain,190,2014-03-06 21:00:00
5:00 PM,75.2,75.2,100,29.80,6.2,SSW,6.9,-,N/A,Rain-Thunderstorm,Light Thunderstorms and Rain,210,2014-03-06 22:00:00
5:18 PM,66.2,66.2,100,29.87,1.0,West,19.6,-,N/A,Rain-Thunderstorm,Heavy Thunderstorms and Rain,260,2014-03-06 22:18:00
5:33 PM,66.2,66.2,100,29.87,5.6,WSW,11.5,-,N/A,Rain-Thunderstorm,Thunderstorms and Rain,240,2014-03-06 22:33:00
6:00 PM,68.0,68.0,100,29.82,6.2,SW,5.8,-,N/A,Rain,Light Rain,220,2014-03-06 23:00:00
7:00 PM,69,68,94,29.81,9,South,3.5,,,,Partly Cloudy,190,2014-03-07 00:00:00
7:00 PM,68.0,68.0,100,29.81,6.2,South,3.5,-,N/A,,Mostly Cloudy,190,2014-03-07 00:00:00
8:00 PM,71.6,69.8,94,29.82,6.2,SSW,8.1,-,N/A,,Mostly Cloudy,200,2014-03-07 01:00:00